[[{"header":{"parameterUnit":"m.s-1","parameterCategory":1,"la1":30.2992,"la2":30.254,"lo1":-89.0895,"lo2":-89.0443,"dy":0.0025,"dx":0.0025,"nx":19,"ny":19,"refTime":"2026-03-20T09:00:00:Z","depth":0,"parameterNumber":2,"parameterNumberName":"U-component_of_WINDS"},"data":[0,0,0,1.5379,1.5382,1.5505,1.5505,1.565,1.5651,0,0,0,0,0,0,0,0,0,0,0,1.5334,1.5335,1.5379,1.5382,1.5505,1.5505,1.565,1.5651,0,0,0,0,0,0,0,0,0,0,0,1.5334,1.5335,1.5336,1.5382,1.5504,1.5505,1.565,1.5561,0,0,0,0,0,0,0,0,0,0,1.5444,1.5395,1.5335,1.5336,1.5383,1.5504,1.5505,1.5557,1.5567,1.5589,0,1.5605,0,1.563,1.566,1.566,0,0,0,1.5388,1.5387,1.5427,1.5336,1.5384,1.5504,1.5451,1.5563,1.5574,1.5601,1.5607,1.5613,1.5633,1.5661,1.5662,1.5764,1.5764,0,0,1.5381,1.5352,1.542,1.5434,1.5413,1.5447,1.5455,1.557,1.5575,1.5608,1.5617,1.5635,1.5662,1.5663,1.5764,1.5764,0,0,0,1.5358,1.5347,1.5385,1.5427,1.545,1.545,1.5459,1.557,1.5584,1.5619,1.5637,1.5662,1.5664,1.5764,1.5764,1.5744,0,0,0,1.5354,1.5333,1.5382,1.5365,1.5448,1.5511,1.5456,1.5576,1.559,1.5636,1.5663,1.5665,1.5764,1.5764,1.5744,1.5739,0,0,0,1.5329,1.5331,1.5345,1.5364,1.5415,1.551,1.5532,1.558,1.5601,1.5661,1.5666,1.5763,1.5764,1.5744,1.5739,1.5757,0,0,0,1.5295,1.5326,1.5345,1.5387,1.5414,1.5496,1.5531,1.5595,1.5643,1.5663,1.5764,1.5764,1.5744,1.574,1.5757,1.5766,1.5767,0,0,1.5318,1.5328,1.5355,1.5375,1.5447,1.548,1.5549,1.5622,1.5655,1.5726,1.5729,1.5744,1.5739,1.5757,1.5784,1.5785,0,0,0,1.5353,1.5372,1.5398,1.5442,1.5497,1.5545,1.561,1.5637,1.5698,1.5685,1.5756,1.5754,1.5766,1.5772,1.5772,1.5784,1.5765,1.5765,1.5765,1.5344,1.5384,1.5432,1.5486,1.5529,1.5595,1.5633,1.5681,1.5709,1.5725,1.5746,1.5758,1.5764,1.5764,1.5776,1.5755,1.5755,1.5755,1.5755,1.5382,1.5415,1.5451,1.551,1.5552,1.5603,1.5668,1.5686,1.5739,1.5746,1.5758,1.576,1.5764,1.5776,1.5754,1.5754,1.5754,1.5754,1.5754,1.538,1.5403,1.5434,1.5502,1.5551,1.5605,1.5654,1.5691,1.5726,1.5738,1.5765,1.5765,1.577,1.5748,1.5748,1.5748,1.5748,1.5749,1.5749,1.5365,1.5402,1.5438,1.55,1.5533,1.5581,1.5648,1.5682,1.5729,1.5752,1.5753,1.5779,1.5757,1.575,1.5749,1.5749,1.5749,1.5749,1.5749,1.5387,1.5388,1.5444,1.5478,1.5553,1.5598,1.5645,1.5711,1.5744,1.5767,1.5791,1.5769,1.5782,1.5782,1.5776,1.5782,1.5782,1.5782,1.5782,1.5385,1.5395,1.5461,1.5512,1.5566,1.5613,1.5676,1.5729,1.5783,1.5806,1.5811,1.5807,1.5805,1.582,1.5819,1.5814,1.583,1.583,1.583,1.5401,1.5418,1.5464,1.5517,1.5578,1.5631,1.5691,1.5748,1.581,1.5833,1.5825,1.5823,1.5818,1.5814,1.5836,1.5834,1.5826,0,0]},{"header":{"parameterUnit":"m.s-1","parameterCategory":1,"la1":30.2992,"la2":30.254,"lo1":-89.0895,"lo2":-89.0443,"dy":0.0025,"dx":0.0025,"nx":19,"ny":19,"refTime":"2026-03-20T09:00:00:Z","depth":0,"parameterNumber":3,"parameterNumberName":"V-component_of_WINDS"},"data":[0,0,0,3.9178,3.9176,3.9102,3.9102,3.9003,3.9002,0,0,0,0,0,0,0,0,0,0,0,3.9201,3.92,3.9178,3.9176,3.9102,3.9102,3.9003,3.9002,0,0,0,0,0,0,0,0,0,0,0,3.9201,3.9201,3.92,3.9176,3.9102,3.9102,3.9003,3.9059,0,0,0,0,0,0,0,0,0,0,3.9131,3.9155,3.9201,3.92,3.9175,3.9103,3.9102,3.9062,3.9056,3.9035,0,3.9022,0,3.9011,3.8995,3.8995,0,0,0,3.9174,3.9161,3.914,3.92,3.9175,3.9103,3.9135,3.9059,3.9051,3.9027,3.902,3.9016,3.9009,3.8995,3.8994,3.8896,3.8895,0,0,3.9178,3.9187,3.9145,3.9136,3.9152,3.9137,3.9133,3.9054,3.9045,3.902,3.9014,3.9007,3.8994,3.8993,3.8896,3.8896,0,0,0,3.9191,3.919,3.9172,3.914,3.9127,3.9135,3.913,3.9049,3.9042,3.9013,3.9006,3.8993,3.8992,3.8897,3.8896,3.889,0,0,0,3.9193,3.9198,3.9173,3.9178,3.9129,3.9088,3.9126,3.9048,3.9039,3.9007,3.8993,3.8991,3.8897,3.8896,3.8891,3.8884,0,0,0,3.9205,3.9199,3.919,3.9179,3.9148,3.9089,3.9078,3.9046,3.9034,3.8995,3.8991,3.8897,3.8896,3.8892,3.8886,3.8862,0,0,0,3.9219,3.9182,3.919,3.9146,3.9149,3.9088,3.9078,3.9031,3.8996,3.8993,3.8897,3.8896,3.8892,3.8887,3.8863,3.8843,3.8837,0,0,3.9177,3.9178,3.9151,3.9156,3.9096,3.9098,3.9036,3.8993,3.8977,3.8923,3.892,3.8891,3.8886,3.8862,3.8796,3.8791,0,0,0,3.9141,3.9122,3.9104,3.9074,3.9044,3.9016,3.8983,3.8967,3.8921,3.8953,3.8875,3.8872,3.8858,3.8848,3.8843,3.883,3.8892,3.8892,3.8892,3.9093,3.9081,3.9036,3.9015,3.8986,3.8953,3.8927,3.8899,3.8891,3.8873,3.8856,3.8819,3.8808,3.8804,3.879,3.8846,3.8846,3.8846,3.8846,3.9031,3.9002,3.8997,3.8952,3.8938,3.8897,3.8864,3.8861,3.8819,3.883,3.8816,3.8828,3.8799,3.8786,3.8845,3.8845,3.8845,3.8845,3.8845,3.8998,3.8982,3.8967,3.8924,3.8891,3.8869,3.8831,3.8818,3.8805,3.8792,3.8773,3.8773,3.877,3.8784,3.8784,3.8784,3.8784,3.8784,3.8784,3.8969,3.8952,3.8924,3.8891,3.8871,3.8843,3.8811,3.8789,3.8761,3.8754,3.8754,3.8748,3.88,3.8813,3.8782,3.8782,3.8782,3.8782,3.8783,3.8908,3.8921,3.8878,3.8858,3.8818,3.8787,3.8773,3.873,3.871,3.8691,3.8688,3.873,3.8727,3.873,3.874,3.8693,3.8693,3.8693,3.8693,3.8879,3.8879,3.8833,3.8802,3.8771,3.8755,3.8703,3.8678,3.8652,3.8639,3.8644,3.8657,3.8661,3.8656,3.8661,3.867,3.8606,3.8605,3.8605,3.8841,3.8837,3.8797,3.8778,3.8747,3.8719,3.867,3.8632,3.8605,3.8602,3.8627,3.8631,3.8652,3.866,3.8655,3.8663,3.868,0,0]}]]